• In Netherlands
  • List of Countries
  • For 7 days
  • Water Temperature
  • Satellite Maps
  • Weather Map
  • Weather Widgets
  • user-avatar
    Login

    Hourly Weather Ashtarak

    Today, 17 November, Friday

    Time Temperature Precipitation Wind Pressure Humidity
    00:00 +6°C° 0 mm 0 mps 660 mmHg 67%
    01:00 +5°C° 0 mm 0 mps 660 mmHg 68%
    02:00 +5°C° 0 mm 0 mps 660 mmHg 69%
    03:00 +6°C° 0 mm 1 mps 659 mmHg 67%
    04:00 +6°C° 0 mm 1 mps 659 mmHg 67%
    05:00 +4°C° 0 mm 0 mps 659 mmHg 67%
    06:00 +4°C° 0 mm 0 mps 659 mmHg 67%
    07:00 +6°C° 0 mm 0 mps 660 mmHg 60%
    08:00 +8°C° 0 mm 1 mps 660 mmHg 52%
    09:00 +10°C° 0 mm 1 mps 661 mmHg 45%
    10:00 +11°C° 0 mm 1 mps 660 mmHg 41%
    11:00 +12°C° 0 mm 1 mps 660 mmHg 38%
    12:00 +13°C° 0 mm 2 mps 660 mmHg 34%
    13:00 +13°C° 0 mm 2 mps 660 mmHg 34%
    14:00 +13°C° 0 mm 2 mps 660 mmHg 33%
    15:00 +13°C° 0 mm 2 mps 660 mmHg 32%
    16:00 +12°C° 0 mm 1 mps 659 mmHg 36%
    17:00 +10°C° 0 mm 1 mps 659 mmHg 40%
    18:00 +9°C° 0 mm 1 mps 659 mmHg 44%
    19:00 +8°C° 0 mm 1 mps 659 mmHg 45%
    20:00 +8°C° 0 mm 1 mps 659 mmHg 45%
    21:00 +8°C° 0 mm 1 mps 659 mmHg 46%
    22:00 +7°C° 0 mm 1 mps 659 mmHg 46%
    23:00 +7°C° 0 mm 1 mps 659 mmHg 47%

    Tomorrow, 18 November, Saturday

    Time Temperature Precipitation Wind Pressure Humidity
    00:00 +7°C° 0 mm 1 mps 659 mmHg 47%
    01:00 +7°C° 0 mm 1 mps 659 mmHg 48%
    02:00 +6°C° 0 mm 1 mps 659 mmHg 48%
    03:00 +6°C° 0 mm 1 mps 659 mmHg 49%
    04:00 +6°C° 0 mm 1 mps 659 mmHg 50%
    05:00 +6°C° 0 mm 1 mps 659 mmHg 50%
    06:00 +6°C° 0 mm 1 mps 659 mmHg 51%
    07:00 +7°C° 0 mm 1 mps 660 mmHg 47%
    08:00 +8°C° 0 mm 1 mps 660 mmHg 43%
    09:00 +10°C° 0 mm 1 mps 661 mmHg 39%
    10:00 +10°C° 0 mm 2 mps 661 mmHg 36%
    11:00 +12°C° 0 mm 2 mps 661 mmHg 33%
    12:00 +12°C° 0 mm 3 mps 661 mmHg 30%
    13:00 +12°C° 0 mm 3 mps 661 mmHg 30%
    14:00 +12°C° 0 mm 3 mps 660 mmHg 30%
    15:00 +12°C° 0 mm 3 mps 660 mmHg 30%
    16:00 +12°C° 0 mm 2 mps 660 mmHg 34%
    17:00 +9°C° 0 mm 2 mps 660 mmHg 37%
    18:00 +8°C° 0 mm 2 mps 659 mmHg 41%
    19:00 +7°C° 0 mm 2 mps 659 mmHg 41%
    20:00 +7°C° 0 mm 2 mps 659 mmHg 41%
    21:00 +7°C° 0 mm 2 mps 659 mmHg 42%
    22:00 +7°C° 0 mm 2 mps 659 mmHg 42%
    23:00 +7°C° 0 mm 2 mps 659 mmHg 43%

    Day after tomorrow, 19 November, Sunday

    Time Temperature Precipitation Wind Pressure Humidity
    00:00 +6°C° 0 mm 2 mps 659 mmHg 44%
    01:00 +6°C° 0 mm 2 mps 659 mmHg 44%
    02:00 +6°C° 0 mm 2 mps 659 mmHg 44%
    03:00 +6°C° 0 mm 2 mps 659 mmHg 44%
    04:00 +6°C° 0 mm 2 mps 658 mmHg 44%
    05:00 +6°C° 0 mm 2 mps 658 mmHg 43%
    06:00 +6°C° 0 mm 2 mps 658 mmHg 43%
    07:00 +7°C° 0 mm 2 mps 658 mmHg 40%
    08:00 +8°C° 0 mm 2 mps 659 mmHg 37%
    09:00 +10°C° 0 mm 2 mps 659 mmHg 34%
    10:00 +10°C° 0 mm 2 mps 659 mmHg 33%
    11:00 +11°C° 0 mm 3 mps 659 mmHg 32%
    12:00 +12°C° 0 mm 3 mps 658 mmHg 31%
    13:00 +11°C° 0.1 mm 3 mps 658 mmHg 36%
    14:00 +11°C° 0.1 mm 3 mps 658 mmHg 41%
    15:00 +10°C° 0.1 mm 3 mps 657 mmHg 45%
    16:00 +9°C° 0.1 mm 3 mps 657 mmHg 48%
    17:00 +9°C° 0.1 mm 2 mps 657 mmHg 52%
    18:00 +8°C° 0.1 mm 2 mps 657 mmHg 55%
    19:00 +7°C° 0 mm 2 mps 657 mmHg 56%
    20:00 +7°C° 0 mm 2 mps 657 mmHg 57%
    21:00 +6°C° 0 mm 2 mps 657 mmHg 58%
    22:00 +6°C° 0 mm 2 mps 657 mmHg 58%
    23:00 +6°C° 0 mm 2 mps 657 mmHg 58%

    20 November, Monday

    Time Temperature Precipitation Wind Pressure Humidity
    00:00 +6°C° 0 mm 2 mps 657 mmHg 58%
    01:00 +6°C° 0 mm 2 mps 657 mmHg 58%
    02:00 +6°C° 0 mm 2 mps 657 mmHg 59%
    03:00 +6°C° 0 mm 2 mps 657 mmHg 59%
    04:00 +5°C° 0 mm 2 mps 657 mmHg 61%
    05:00 +5°C° 0 mm 2 mps 657 mmHg 62%
    06:00 +5°C° 0 mm 2 mps 657 mmHg 64%
    07:00 +6°C° 0 mm 2 mps 657 mmHg 61%
    08:00 +7°C° 0 mm 2 mps 657 mmHg 58%
    09:00 +8°C° 0 mm 3 mps 657 mmHg 55%
    10:00 +9°C° 0 mm 3 mps 657 mmHg 53%
    11:00 +10°C° 0 mm 3 mps 657 mmHg 51%
    12:00 +11°C° 0 mm 4 mps 656 mmHg 49%
    13:00 +11°C° 0 mm 3 mps 656 mmHg 49%
    14:00 +11°C° 0 mm 3 mps 656 mmHg 50%
    15:00 +11°C° 0 mm 3 mps 655 mmHg 50%
    16:00 +10°C° 0.1 mm 3 mps 655 mmHg 54%
    17:00 +9°C° 0.1 mm 2 mps 655 mmHg 57%
    18:00 +8°C° 0.1 mm 2 mps 655 mmHg 61%
    19:00 +8°C° 0.1 mm 2 mps 655 mmHg 62%
    20:00 +7°C° 0.1 mm 2 mps 655 mmHg 63%
    21:00 +7°C° 0.1 mm 2 mps 655 mmHg 63%
    22:00 +7°C° 0 mm 2 mps 654 mmHg 64%
    23:00 +7°C° 0 mm 2 mps 654 mmHg 65%

    21 November, Tuesday

    Time Temperature Precipitation Wind Pressure Humidity
    00:00 +7°C° 0 mm 2 mps 654 mmHg 66%
    01:00 +7°C° 0 mm 2 mps 654 mmHg 67%
    02:00 +7°C° 0 mm 2 mps 654 mmHg 68%
    03:00 +7°C° 0 mm 2 mps 653 mmHg 69%
    04:00 +6°C° 0 mm 2 mps 653 mmHg 70%
    05:00 +6°C° 0 mm 2 mps 653 mmHg 71%
    06:00 +6°C° 0 mm 2 mps 653 mmHg 71%
    07:00 +7°C° 0 mm 2 mps 653 mmHg 67%
    08:00 +8°C° 0 mm 2 mps 653 mmHg 63%
    09:00 +9°C° 0 mm 2 mps 653 mmHg 59%
    10:00 +10°C° 0 mm 2 mps 653 mmHg 56%
    11:00 +11°C° 0 mm 3 mps 653 mmHg 53%
    12:00 +12°C° 0 mm 3 mps 653 mmHg 50%
    13:00 +12°C° 0 mm 3 mps 652 mmHg 52%
    14:00 +11°C° 0 mm 3 mps 652 mmHg 54%
    15:00 +11°C° 0 mm 3 mps 652 mmHg 56%
    16:00 +10°C° 0 mm 3 mps 651 mmHg 61%
    17:00 +9°C° 0 mm 2 mps 651 mmHg 66%
    18:00 +8°C° 0 mm 2 mps 651 mmHg 72%
    19:00 +8°C° 0.1 mm 2 mps 651 mmHg 74%
    20:00 +8°C° 0.1 mm 1 mps 651 mmHg 76%
    21:00 +8°C° 0.1 mm 1 mps 651 mmHg 78%
    22:00 +8°C° 0.1 mm 1 mps 651 mmHg 79%
    23:00 +8°C° 0.1 mm 1 mps 651 mmHg 80%

    22 November, Wednesday

    Time Temperature Precipitation Wind Pressure Humidity
    00:00 +7°C° 0.1 mm 1 mps 651 mmHg 80%
    01:00 +7°C° 0 mm 1 mps 651 mmHg 80%
    02:00 +7°C° 0 mm 1 mps 651 mmHg 80%
    03:00 +7°C° 0 mm 1 mps 651 mmHg 79%
    04:00 +7°C° 0 mm 1 mps 651 mmHg 80%
    05:00 +6°C° 0 mm 1 mps 651 mmHg 80%
    06:00 +5°C° 0 mm 0 mps 651 mmHg 80%
    07:00 +7°C° 0.1 mm 1 mps 651 mmHg 76%
    08:00 +8°C° 0.1 mm 1 mps 651 mmHg 72%
    09:00 +9°C° 0.1 mm 1 mps 652 mmHg 68%
    10:00 +9°C° 0.2 mm 1 mps 651 mmHg 65%
    11:00 +10°C° 0.2 mm 1 mps 651 mmHg 63%
    12:00 +9°C° 0.2 mm 2 mps 651 mmHg 60%
    13:00 +9°C° 0.5 mm 2 mps 651 mmHg 63%
    14:00 +9°C° 0.5 mm 2 mps 651 mmHg 66%
    15:00 +8°C° 0.5 mm 2 mps 651 mmHg 69%
    16:00 +8°C° 0.8 mm 2 mps 651 mmHg 72%
    17:00 +7°C° 0.8 mm 2 mps 651 mmHg 76%
    18:00 +7°C° 0.8 mm 2 mps 652 mmHg 79%
    19:00 +6°C° 1.1 mm 2 mps 652 mmHg 81%
    20:00 +6°C° 1.1 mm 2 mps 652 mmHg 82%
    21:00 +7°C° 1.1 mm 1 mps 652 mmHg 84%
    22:00 +6°C° 0.7 mm 2 mps 653 mmHg 84%
    23:00 +6°C° 0.7 mm 2 mps 653 mmHg 84%
    Show more